DM7LA-WX Weather Reports


time (UTC)temp
F
wind
direction
speed
knots
gust
knots
rain 1hr
in
rain 24hr
in
rain mn
in
humidity
%
barometer
mb
20260507095801 50 90 6.1 6.1 0.00 0.54 0.00 79 1012.3
20260507085801 50 90 6.1 6.1 0.00 0.54 0.00 81 1011.7
20260507075801 50 67 3.5 3.5 0.00 0.54 0.00 82 1011.4
20260507065801 49 67 5.2 5.2 0.00 0.54 0.00 82 1011.0
20260507055801 49 90 4.3 4.3 0.00 0.54 0.00 84 1010.5
20260507045801 47 67 2.6 2.6 0.00 0.54 0.00 88 1010.1
20260507035802 43 90 0.0 0.0 0.00 0.54 0.00 90 1009.3
20260507025802 45 90 2.6 2.6 0.00 0.54 0.00 89 1009.3
20260507015802 47 0 3.5 3.5 0.00 0.54 0.00 88 1008.8
20260507005801 47 22 4.3 4.3 0.00 0.54 0.00 84 1008.5
20260506235802 47 292 4.3 4.3 0.00 0.54 0.00 79 1008.4
20260506225802 48 22 6.1 6.1 0.00 0.54 0.00 76 1008.3
20260506215802 47 337 6.1 6.1 0.00 0.54 0.00 77 1008.2
20260506205801 47 0 7.0 7.0 0.00 0.54 0.00 78 1007.8
20260506195802 47 45 5.2 5.2 0.00 0.54 0.00 83 1007.6
20260506185801 48 315 7.0 7.0 0.00 0.54 0.00 80 1007.2
20260506175801 48 45 7.8 7.8 0.00 0.54 0.00 80 1006.5
20260506165802 49 315 7.8 7.8 0.00 0.54 0.00 77 1006.3
20260506155801 51 315 5.2 5.2 0.00 0.54 0.00 75 1006.3
20260506145802 51 22 8.7 8.7 0.00 0.54 0.00 77 1006.3
20260506135802 50 45 7.0 7.0 0.00 0.54 0.00 81 1006.4
20260506125802 53 337 7.0 7.0 0.00 0.54 0.00 80 1006.3
20260506115802 52 45 8.7 8.7 0.00 0.54 0.00 80 1006.1
20260506105802 52 22 7.8 7.8 0.00 0.54 0.00 71 1006.3